SCP
0 0 0 0 0 0 0 0 0 0 0 0 -0 -0 0 0 0 0 0 0 0 0 0 0 0 0 0 0 0 0 0 0 0 0 0 0 0 0 0 0 0 0 0 0
0 0 0 0 0 0 0 0 0 0 0 0 0 -0 0 0 0 0 0 0 0 0 0 0 0 0 0 0 0 0 0 0 0 0 0 0 0 0 0 0 0 0 0 0
0 0 0 0 0 0 0 0 0 0 0 0 0 -0 0 0 0 0 0 0 0 0 0 0 0 0 0 0 0 0 0 0 0 0 0 0 0 0 0 0 0 0 0 0
0 0 0 0 0 0 0 0 0 0 0 0 0 -0 0 0 0 0 0 0 0 0 0 0 0 0 0 0 0 0 0 0 0 0 0 0 0 0 0 0 0 0 0 0
0 0 0 0 0 0 0 0 0 0 0 0 0 0 0 0 0 -0 0 0 0 0 0 0 0 -0 -0 0 0 0 0 0 0 0 0 0 0 0 0 0 0 0 0 0
0 0 0 0 0 0 0 0 0 0 0 0 0 0 -0 0 0 0 0 0 0 0 0 0 0 0 -0 -0 0 0 0 0 0 0 0 0 0 0 0 0 0 0 0 0
0 0 0 0 0 0 0 0 0 0 0 0 0 0 0 0 0 0 0 0 0 0 0 0 0 0 -0 -0 0 0 0 0 0 0 0 0 0 0 0 0 0 0 0 0
0 0 0 0 0 0 0 0 0 0 0 0 0 0 0 0 0 0 0 0 0 0 0 0 0 0 0 0 -0 0 0 0 0 0 0 0 0 0 0 0 0 0 0 0
0 0 0 0 0 0 0 0 0 0 0 0 0 0 0 0 0 0 0 0 0 0 -0 0 0 -0 -0 -0 -0 -0 0 0 0 0 0 0 0 0 0 0 0 0 0 0
0 0 0 0 0 0 0 0 0 0 0 0 0 0 0 0 0 0 -0 0 0 0 0 0 0 -0 -0 -0 -0 0 0 0 0 0 0 0 0 0 0 0 0 0 0 0
0 0 0 0 0 0 0 0 0 0 0 0 0 0 0 0 0 0 0 -0 -0 -0 -0 -0 -0 0 0 -0 -0 -0 0 0 0 0 0 0 0 0 0 0 0 0 0 0
0 0 0 0 0 0 0 0 0 0 0 0 0 0 0 0 0 0 0 -0 -0 -0 -0 0 0 0 0 0 0 -0 -0 -0 0 0 0 0 0 0 0 0 0 0 0 0
0 0 0 0 0 0 0 0 0 0 0 0 0 0 0 0 0 0 0 0 -0 -0 0 0 0 0 0 0 0 0 0 -0 -0 -0 0 0 0 0 0 0 0 0 0 0
0 0 0 0 0 0 0 0 0 0 0 0 0 0 0 0 0 0 0 0 0 0 0 0 0 0 0 0 0 0 0 0 0 0 0 0 0 0 0 0 0 0 0 0
0 0 0 0 0 0 0 0 0 0 0 0 0 0 0 0 0 0 0 0 0 0 0 0 0 0 0 0 0 0 0 0 0 0 0 0 0 0 0 0 0 0 0 0
0 0 0 0 0 0 0 0 0 0 0 0 -0 -0 0 0 0 0 0 0 0 0 0 0 0 0 0 0 0 0 0 0 0 0 0 0 0 0 0 0 0 0 0 0
0 0 0 0 0 0 0 0 0 0 0 0 0 0 0 0 0 0 0 0 0 0 0 0 0 0 0 0 0 0 0 0 0 0 0 0 0 0 0 0 0 0 0 0
0 0 0 0 0 0 0 0 0 0 0 0 0 0 0 0 0 0 0 0 0 0 0 0 0 0 0 0 0 0 0 0 0 0 -0 0 0 0 0 0 0 0 0 0
0 0 0 0 0 0 0 0 0 0 0 0 0 0 0 0 -0 0 0 0 0 -0 -0 -0 -0 -0 -0 0 0 0 0 0 0 0 0 0 0 0 0 0 0 0 0 0
0 0 0 0 0 0 0 0 0 0 0 0 0 0 0 -0 0 0 -0 -0 -0 -0 -0 -0 -0 -0 -0 -0 -0 -0 0 0 0 0 0 0 0 0 0 0 0 0 0 0
0 0 0 0 0 0 0 0 0 0 0 0 0 0 -0 0 0 0 0 0 -0 -0 -0 0 -0 -0 -0 -0 -0 -0 -0 -0 -0 -0 0 0 0 0 0 0 0 0 0 0
0 0 0 0 0 0 0 0 0 0 0 0 0 0 0 0 0 0 0 0 0 0 -0 -0 -0 -0 -0 -0 -0 -0 -0 -0 -0 -0 -0 -0 0 0 0 0 0 0 0 0
0 0 0 0 0 0 0 0 0 0 0 0 0 0 0 0 0 0 0 0 0 0 0 0 -0 -0 -0 -0 -0 -0 -0 -0 -0 -0 0 0 0 0 0 0 0 0 0 0
0 0 0 0 0 0 0 0 0 0 0 0 0 0 0 0 0 0 0 0 0 0 0 0 0 0 -0 -0 -0 -0 -0 -0 -0 -0 -0 -0 0 0 0 0 0 0 0 0
0 0 0 0 0 0 0 0 0 0 0 0 0 0 0 0 0 0 0 0 0 0 0 0 0 0 0 0 -0 -0 -0 -0 -0 -0 -0 -0 -0 0 0 0 0 0 0 0
0 0 0 0 0 0 0 0 0 0 0 0 0 0 0 0 0 0 0 0 0 0 0 0 0 0 0 0 0 -0 -0 -0 -0 -0 -0 -0 -0 -0 0 0 0 0 0 0
Wind_Speed_500mb
6 6 15 31 21 5 5 10 15 16 24 11 37 39 35 49 55 62 76 82 79 97 104 95 85 84 88 89 92 95 91 86 90 95 99 104 101 102 100 96 93 89 86 82
7 12 28 8 8 15 16 19 28 23 32 8 27 49 40 35 45 70 69 79 90 83 83 88 82 78 77 74 74 82 92 96 93 100 101 103 103 108 103 99 99 97 93 88
16 11 8 10 8 18 9 13 26 23 15 12 19 28 15 14 39 66 73 85 84 85 88 87 83 81 71 66 65 69 77 89 96 100 102 108 109 106 108 109 107 106 98 91
12 6 10 7 16 16 19 25 28 18 8 8 10 34 10 15 17 12 60 70 74 82 81 76 79 80 73 62 55 61 66 72 83 96 105 109 115 118 114 112 109 105 101 98
16 13 10 9 18 15 21 6 8 4 7 11 5 6 8 10 13 28 20 50 46 58 53 61 71 86 84 76 70 59 62 70 78 91 100 106 111 112 111 111 106 103 102 101
15 2 10 16 11 16 4 5 10 8 5 10 18 13 63 8 11 6 11 30 54 50 54 60 49 60 70 70 57 56 60 69 78 87 96 102 106 111 111 110 99 99 102 101
4 10 8 9 6 2 7 8 8 7 2 20 13 11 51 15 22 17 28 41 39 50 38 31 53 70 77 78 62 52 65 69 72 82 91 97 97 101 106 103 99 97 98 104
6 34 14 11 17 17 15 19 10 14 23 37 11 16 36 21 28 44 41 40 39 24 19 34 59 70 73 79 75 61 61 65 70 79 81 83 84 90 96 98 97 96 93 93
9 19 4 9 5 10 7 10 9 9 6 6 24 31 32 55 50 28 24 14 27 27 27 65 82 69 70 64 60 60 50 55 63 64 67 75 80 85 90 93 96 93 87 85
8 26 11 5 2 8 14 2 4 2 8 35 20 38 32 38 36 28 15 22 39 44 70 79 81 88 68 55 65 68 62 53 51 53 55 63 71 80 86 84 90 89 87 86
2 9 32 6 16 33 4 8 9 5 12 20 25 18 30 45 39 26 19 9 30 49 62 69 62 45 43 48 55 59 61 65 61 53 51 58 64 76 79 81 81 84 82 83
18 9 23 59 42 6 9 15 17 17 18 24 38 43 35 30 38 41 55 55 58 60 34 28 25 28 37 48 51 55 60 61 59 66 64 65 58 64 75 78 77 80 83 85
4 8 8 8 13 4 9 9 22 39 42 53 44 30 14 21 29 46 51 60 57 64 63 59 55 56 58 56 52 50 55 62 62 57 62 69 67 71 72 72 74 82 85 87
7 10 20 29 31 20 33 17 20 22 19 28 30 34 26 33 29 38 60 51 49 55 59 65 67 64 63 69 72 60 54 55 55 55 57 61 66 71 80 82 80 80 82 85
3 13 11 23 22 20 32 42 45 49 51 50 53 54 32 19 27 32 28 44 54 62 70 69 72 75 80 78 81 77 67 65 67 64 63 60 60 63 73 90 91 92 91 89
6 7 15 26 41 34 36 45 57 55 58 53 42 32 14 19 32 48 33 43 54 61 64 68 73 74 80 83 82 88 79 73 71 72 71 61 59 58 57 65 86 94 95 93
7 6 2 34 40 19 24 34 36 27 13 7 10 10 19 15 28 34 36 29 50 57 60 65 70 69 80 78 83 87 85 80 72 71 73 68 53 58 63 64 76 87 95 92
15 7 5 12 7 7 14 13 16 15 11 10 2 9 12 19 35 39 35 32 54 55 65 68 73 75 76 76 76 80 82 82 76 74 71 68 68 49 52 64 74 82 91 93
26 16 6 6 13 22 26 10 6 8 9 6 7 16 24 25 32 23 27 45 53 56 60 68 62 64 70 73 76 79 79 78 78 76 74 70 69 71 49 49 58 72 83 87
10 17 10 6 5 9 9 7 19 6 8 13 18 12 15 17 11 22 44 54 59 65 69 72 69 68 67 69 70 75 79 80 82 80 78 74 70 66 68 49 51 66 61 76
6 7 8 5 7 15 9 13 18 9 12 21 29 37 33 9 17 63 78 82 77 75 70 70 74 70 74 73 79 81 84 85 89 90 83 82 74 67 57 56 47 52 55 61
9 6 6 6 3 16 14 15 4 16 31 45 47 55 46 50 60 67 80 86 80 76 79 83 82 83 82 81 80 85 92 98 95 93 90 85 74 67 64 54 50 45 49 56
13 14 9 18 15 15 45 48 73 52 43 65 50 53 43 53 62 68 75 81 82 80 87 85 85 91 94 90 86 93 102 103 103 104 98 90 88 68 59 59 53 49 46 53
11 27 19 27 30 37 68 70 59 72 74 69 57 43 56 56 70 66 72 77 75 82 82 84 91 95 99 97 100 102 105 107 111 110 108 100 86 85 65 59 60 58 54 54
19 9 13 26 37 51 60 65 68 61 51 42 55 58 56 54 74 66 74 87 91 91 90 81 80 85 105 110 113 112 115 113 114 118 110 105 95 79 77 66 67 66 66 63
30 34 22 29 55 47 53 55 38 44 52 50 51 67 73 57 67 65 80 86 83 91 96 85 83 88 101 96 112 122 118 112 109 108 112 102 93 86 72 76 73 67 67 64
Wind_Direction_500mb
171 129 199 227 198 148 192 232 248 258 267 311 275 269 265 268 279 271 272 272 276 275 285 287 286 283 279 275 272 268 263 256 246 238 236 236 237 235 234 233 233 232 232 230
48 222 229 79 149 222 246 270 272 284 269 246 274 280 276 254 253 259 267 275 274 280 286 294 296 295 291 286 280 273 266 257 251 244 239 237 237 236 235 233 231 229 230 229
199 227 193 191 242 249 204 225 259 252 315 255 296 279 227 265 242 255 265 266 278 281 291 298 303 305 305 298 291 282 276 266 251 247 240 236 234 236 232 230 229 227 227 228
235 270 224 145 225 203 262 232 251 269 353 255 48 300 184 227 244 224 251 267 278 288 296 301 313 319 318 316 308 295 275 264 252 245 241 239 238 235 235 233 232 229 227 227
245 170 161 183 221 148 235 194 246 167 200 304 160 240 209 164 238 246 251 259 295 298 306 316 318 319 318 317 314 302 280 262 250 245 243 241 239 240 239 236 232 229 227 226
247 317 193 215 220 189 58 61 45 42 104 283 177 168 285 153 206 256 243 297 304 297 306 321 344 342 332 320 310 298 282 265 254 247 243 242 241 238 236 234 233 230 228 228
215 215 240 189 254 88 140 81 306 320 83 244 162 179 258 260 269 227 275 280 287 289 315 351 4 1 352 337 317 288 277 269 257 248 244 241 240 240 240 237 234 231 228 227
207 288 187 171 200 205 191 170 191 243 269 275 145 237 261 241 259 266 275 272 290 312 352 8 353 347 345 338 331 316 287 270 257 250 247 245 241 240 239 238 236 236 234 232
200 261 231 185 228 173 196 184 211 261 266 286 270 272 298 278 276 296 262 286 330 331 344 337 334 335 331 332 336 328 315 290 272 263 255 248 241 238 234 234 235 237 237 236
294 298 197 213 120 210 192 268 274 351 234 254 233 252 260 289 307 312 294 330 342 332 324 325 320 313 323 326 334 333 331 311 290 273 264 255 250 244 237 233 234 235 236 237
12 259 276 184 193 245 215 223 217 271 226 252 257 241 257 270 290 301 310 291 305 317 316 316 320 327 320 328 333 339 335 320 308 288 273 262 255 247 241 238 235 237 238 238
256 259 265 270 266 200 182 237 247 249 247 251 264 259 256 285 299 308 308 317 318 325 13 7 2 340 332 331 329 326 326 323 321 305 286 271 260 252 247 242 239 238 238 239
118 223 271 300 280 86 208 247 246 261 265 255 258 268 256 305 313 309 322 8 8 1 358 1 2 1 357 351 342 326 322 320 316 313 300 284 271 258 250 248 245 241 239 239
282 235 241 261 277 324 288 304 319 310 290 296 283 304 321 305 349 348 342 10 13 12 7 2 358 356 356 356 355 351 344 340 326 312 304 292 286 285 282 270 259 252 248 245
12 271 283 289 292 294 300 292 286 277 279 273 286 287 312 22 345 343 357 13 11 3 358 353 351 348 344 343 343 347 351 349 344 332 309 292 289 280 272 265 262 255 248 247
342 284 333 289 289 295 290 284 277 275 276 277 285 284 18 27 5 3 14 5 357 350 345 341 338 339 341 341 337 339 340 344 346 340 331 306 290 280 278 269 263 257 252 252
234 221 129 275 289 314 289 260 260 265 339 341 295 8 329 2 346 338 316 339 343 341 336 335 329 329 332 338 336 336 334 337 339 340 339 329 299 277 270 269 263 258 255 253
231 148 142 263 49 218 243 53 69 109 104 76 74 296 291 289 309 313 308 315 325 326 330 328 324 323 327 332 335 332 328 330 333 334 336 341 334 307 282 265 259 261 257 253
216 225 253 235 212 263 293 29 14 63 281 215 248 295 275 292 293 302 330 328 318 317 315 320 322 324 325 329 330 330 331 330 329 333 333 338 341 337 315 293 278 264 255 250
44 206 234 2 237 241 234 239 279 119 263 224 210 257 252 272 293 302 319 324 313 316 316 317 320 319 322 327 329 330 331 330 329 325 325 329 330 332 336 321 294 271 257 252
9 358 184 247 250 287 238 260 307 90 249 306 316 309 260 230 256 301 308 313 311 313 314 314 311 311 317 321 324 326 326 325 323 322 319 316 318 319 322 328 312 282 265 250
165 168 231 66 43 285 196 343 172 271 296 296 279 290 256 263 289 294 301 306 307 308 310 312 312 311 312 314 316 318 318 322 322 320 318 316 310 309 309 309 313 299 273 257
254 204 211 185 222 257 286 277 283 291 288 292 287 280 255 284 284 291 295 299 303 303 306 306 306 306 307 308 309 310 312 315 316 315 314 309 307 300 298 301 295 288 279 264
248 238 246 263 261 255 267 275 281 286 286 286 285 270 289 285 292 291 296 297 295 299 299 302 302 301 301 303 305 305 307 308 308 308 308 308 304 301 294 287 286 277 269 258
251 215 231 250 266 273 268 268 277 286 288 286 292 295 293 294 295 297 295 296 297 297 297 296 293 291 295 297 297 300 301 302 302 303 304 303 301 299 294 285 278 278 273 264
243 250 246 257 270 269 277 289 289 294 297 296 297 298 302 300 295 294 290 292 292 293 296 294 290 288 290 291 293 295 297 299 300 298 297 297 297 293 286 283 279 272 275 271
Wind_Speed_850mb
6 6 15 31 21 5 5 10 15 16 24 11 37 39 35 49 55 62 76 82 79 97 104 95 85 84 88 89 92 95 91 86 90 95 99 104 101 102 100 96 93 89 86 82
7 12 28 8 8 15 16 19 28 23 32 8 27 49 40 35 45 70 69 79 90 83 83 88 82 78 77 74 74 82 92 96 93 100 101 103 103 108 103 99 99 97 93 88
16 11 8 10 8 18 9 13 26 23 15 12 19 28 15 14 39 66 73 85 84 85 88 87 83 81 71 66 65 69 77 89 96 100 102 108 109 106 108 109 107 106 98 91
12 6 10 7 16 16 19 25 28 18 8 8 10 34 10 15 17 12 60 70 74 82 81 76 79 80 73 62 55 61 66 72 83 96 105 109 115 118 114 112 109 105 101 98
16 13 10 9 18 15 21 6 8 4 7 11 5 6 8 10 13 28 20 50 46 58 53 61 71 86 84 76 70 59 62 70 78 91 100 106 111 112 111 111 106 103 102 101
15 2 10 16 11 16 4 5 10 8 5 10 18 13 63 8 11 6 11 30 54 50 54 60 49 60 70 70 57 56 60 69 78 87 96 102 106 111 111 110 99 99 102 101
4 10 8 9 6 2 7 8 8 7 2 20 13 11 51 15 22 17 28 41 39 50 38 31 53 70 77 78 62 52 65 69 72 82 91 97 97 101 106 103 99 97 98 104
6 34 14 11 17 17 15 19 10 14 23 37 11 16 36 21 28 44 41 40 39 24 19 34 59 70 73 79 75 61 61 65 70 79 81 83 84 90 96 98 97 96 93 93
9 19 4 9 5 10 7 10 9 9 6 6 24 31 32 55 50 28 24 14 27 27 27 65 82 69 70 64 60 60 50 55 63 64 67 75 80 85 90 93 96 93 87 85
8 26 11 5 2 8 14 2 4 2 8 35 20 38 32 38 36 28 15 22 39 44 70 79 81 88 68 55 65 68 62 53 51 53 55 63 71 80 86 84 90 89 87 86
2 9 32 6 16 33 4 8 9 5 12 20 25 18 30 45 39 26 19 9 30 49 62 69 62 45 43 48 55 59 61 65 61 53 51 58 64 76 79 81 81 84 82 83
18 9 23 59 42 6 9 15 17 17 18 24 38 43 35 30 38 41 55 55 58 60 34 28 25 28 37 48 51 55 60 61 59 66 64 65 58 64 75 78 77 80 83 85
4 8 8 8 13 4 9 9 22 39 42 53 44 30 14 21 29 46 51 60 57 64 63 59 55 56 58 56 52 50 55 62 62 57 62 69 67 71 72 72 74 82 85 87
7 10 20 29 31 20 33 17 20 22 19 28 30 34 26 33 29 38 60 51 49 55 59 65 67 64 63 69 72 60 54 55 55 55 57 61 66 71 80 82 80 80 82 85
3 13 11 23 22 20 32 42 45 49 51 50 53 54 32 19 27 32 28 44 54 62 70 69 72 75 80 78 81 77 67 65 67 64 63 60 60 63 73 90 91 92 91 89
6 7 15 26 41 34 36 45 57 55 58 53 42 32 14 19 32 48 33 43 54 61 64 68 73 74 80 83 82 88 79 73 71 72 71 61 59 58 57 65 86 94 95 93
7 6 2 34 40 19 24 34 36 27 13 7 10 10 19 15 28 34 36 29 50 57 60 65 70 69 80 78 83 87 85 80 72 71 73 68 53 58 63 64 76 87 95 92
15 7 5 12 7 7 14 13 16 15 11 10 2 9 12 19 35 39 35 32 54 55 65 68 73 75 76 76 76 80 82 82 76 74 71 68 68 49 52 64 74 82 91 93
26 16 6 6 13 22 26 10 6 8 9 6 7 16 24 25 32 23 27 45 53 56 60 68 62 64 70 73 76 79 79 78 78 76 74 70 69 71 49 49 58 72 83 87
10 17 10 6 5 9 9 7 19 6 8 13 18 12 15 17 11 22 44 54 59 65 69 72 69 68 67 69 70 75 79 80 82 80 78 74 70 66 68 49 51 66 61 76
6 7 8 5 7 15 9 13 18 9 12 21 29 37 33 9 17 63 78 82 77 75 70 70 74 70 74 73 79 81 84 85 89 90 83 82 74 67 57 56 47 52 55 61
9 6 6 6 3 16 14 15 4 16 31 45 47 55 46 50 60 67 80 86 80 76 79 83 82 83 82 81 80 85 92 98 95 93 90 85 74 67 64 54 50 45 49 56
13 14 9 18 15 15 45 48 73 52 43 65 50 53 43 53 62 68 75 81 82 80 87 85 85 91 94 90 86 93 102 103 103 104 98 90 88 68 59 59 53 49 46 53
11 27 19 27 30 37 68 70 59 72 74 69 57 43 56 56 70 66 72 77 75 82 82 84 91 95 99 97 100 102 105 107 111 110 108 100 86 85 65 59 60 58 54 54
19 9 13 26 37 51 60 65 68 61 51 42 55 58 56 54 74 66 74 87 91 91 90 81 80 85 105 110 113 112 115 113 114 118 110 105 95 79 77 66 67 66 66 63
30 34 22 29 55 47 53 55 38 44 52 50 51 67 73 57 67 65 80 86 83 91 96 85 83 88 101 96 112 122 118 112 109 108 112 102 93 86 72 76 73 67 67 64
Wind_Direction_850mb
171 129 199 227 198 148 192 232 248 258 267 311 275 269 265 268 279 271 272 272 276 275 285 287 286 283 279 275 272 268 263 256 246 238 236 236 237 235 234 233 233 232 232 230
48 222 229 79 149 222 246 270 272 284 269 246 274 280 276 254 253 259 267 275 274 280 286 294 296 295 291 286 280 273 266 257 251 244 239 237 237 236 235 233 231 229 230 229
199 227 193 191 242 249 204 225 259 252 315 255 296 279 227 265 242 255 265 266 278 281 291 298 303 305 305 298 291 282 276 266 251 247 240 236 234 236 232 230 229 227 227 228
235 270 224 145 225 203 262 232 251 269 353 255 48 300 184 227 244 224 251 267 278 288 296 301 313 319 318 316 308 295 275 264 252 245 241 239 238 235 235 233 232 229 227 227
245 170 161 183 221 148 235 194 246 167 200 304 160 240 209 164 238 246 251 259 295 298 306 316 318 319 318 317 314 302 280 262 250 245 243 241 239 240 239 236 232 229 227 226
247 317 193 215 220 189 58 61 45 42 104 283 177 168 285 153 206 256 243 297 304 297 306 321 344 342 332 320 310 298 282 265 254 247 243 242 241 238 236 234 233 230 228 228
215 215 240 189 254 88 140 81 306 320 83 244 162 179 258 260 269 227 275 280 287 289 315 351 4 1 352 337 317 288 277 269 257 248 244 241 240 240 240 237 234 231 228 227
207 288 187 171 200 205 191 170 191 243 269 275 145 237 261 241 259 266 275 272 290 312 352 8 353 347 345 338 331 316 287 270 257 250 247 245 241 240 239 238 236 236 234 232
200 261 231 185 228 173 196 184 211 261 266 286 270 272 298 278 276 296 262 286 330 331 344 337 334 335 331 332 336 328 315 290 272 263 255 248 241 238 234 234 235 237 237 236
294 298 197 213 120 210 192 268 274 351 234 254 233 252 260 289 307 312 294 330 342 332 324 325 320 313 323 326 334 333 331 311 290 273 264 255 250 244 237 233 234 235 236 237
12 259 276 184 193 245 215 223 217 271 226 252 257 241 257 270 290 301 310 291 305 317 316 316 320 327 320 328 333 339 335 320 308 288 273 262 255 247 241 238 235 237 238 238
256 259 265 270 266 200 182 237 247 249 247 251 264 259 256 285 299 308 308 317 318 325 13 7 2 340 332 331 329 326 326 323 321 305 286 271 260 252 247 242 239 238 238 239
118 223 271 300 280 86 208 247 246 261 265 255 258 268 256 305 313 309 322 8 8 1 358 1 2 1 357 351 342 326 322 320 316 313 300 284 271 258 250 248 245 241 239 239
282 235 241 261 277 324 288 304 319 310 290 296 283 304 321 305 349 348 342 10 13 12 7 2 358 356 356 356 355 351 344 340 326 312 304 292 286 285 282 270 259 252 248 245
12 271 283 289 292 294 300 292 286 277 279 273 286 287 312 22 345 343 357 13 11 3 358 353 351 348 344 343 343 347 351 349 344 332 309 292 289 280 272 265 262 255 248 247
342 284 333 289 289 295 290 284 277 275 276 277 285 284 18 27 5 3 14 5 357 350 345 341 338 339 341 341 337 339 340 344 346 340 331 306 290 280 278 269 263 257 252 252
234 221 129 275 289 314 289 260 260 265 339 341 295 8 329 2 346 338 316 339 343 341 336 335 329 329 332 338 336 336 334 337 339 340 339 329 299 277 270 269 263 258 255 253
231 148 142 263 49 218 243 53 69 109 104 76 74 296 291 289 309 313 308 315 325 326 330 328 324 323 327 332 335 332 328 330 333 334 336 341 334 307 282 265 259 261 257 253
216 225 253 235 212 263 293 29 14 63 281 215 248 295 275 292 293 302 330 328 318 317 315 320 322 324 325 329 330 330 331 330 329 333 333 338 341 337 315 293 278 264 255 250
44 206 234 2 237 241 234 239 279 119 263 224 210 257 252 272 293 302 319 324 313 316 316 317 320 319 322 327 329 330 331 330 329 325 325 329 330 332 336 321 294 271 257 252
9 358 184 247 250 287 238 260 307 90 249 306 316 309 260 230 256 301 308 313 311 313 314 314 311 311 317 321 324 326 326 325 323 322 319 316 318 319 322 328 312 282 265 250
165 168 231 66 43 285 196 343 172 271 296 296 279 290 256 263 289 294 301 306 307 308 310 312 312 311 312 314 316 318 318 322 322 320 318 316 310 309 309 309 313 299 273 257
254 204 211 185 222 257 286 277 283 291 288 292 287 280 255 284 284 291 295 299 303 303 306 306 306 306 307 308 309 310 312 315 316 315 314 309 307 300 298 301 295 288 279 264
248 238 246 263 261 255 267 275 281 286 286 286 285 270 289 285 292 291 296 297 295 299 299 302 302 301 301 303 305 305 307 308 308 308 308 308 304 301 294 287 286 277 269 258
251 215 231 250 266 273 268 268 277 286 288 286 292 295 293 294 295 297 295 296 297 297 297 296 293 291 295 297 297 300 301 302 302 303 304 303 301 299 294 285 278 278 273 264
243 250 246 257 270 269 277 289 289 294 297 296 297 298 302 300 295 294 290 292 292 293 296 294 290 288 290 291 293 295 297 299 300 298 297 297 297 293 286 283 279 272 275 271